sat.trackr.live / text

‹ back to catalog

STARLINK-3267

NORAD 50197 · 2021-125AT

PAYLOAD ACTIVE UNKNOWN

§ Identity

Operator
Country
US
Launch date
2021-12-18
Launch site
AFWTR
Launch vehicle
Mass (kg)
RCS (m²)

Purposes: comms

External: N2YO · Heavens-Above · Gunter

§ Orbital elements

Epoch: 2026-09-03T18:20:14.140320Z

Period
93.85 min
Inclination
53.1602°
Eccentricity
0.0001250
Mean motion
15.34389474 rev/d
Perigee alt
461.9 km
Apogee alt
463.6 km
Semi-major
6,840.9 km
B*
2.0721e-5
RAAN
151.6361°
Arg perigee
95.6376°
Mean anomaly
264.4769°
Rev number
26,377

§ Raw data

STARLINK-32671 50197U 21125AT  26246.76405255  .00000324  00000+0  20721-4 0  99912 50197  53.1602 151.6361 0001250  95.6376 264.4769 15.34389474263779

JSON: /api/v1/satellites/50197 · /tle

For live sub-satellite position, see the globe view (requires WebGL).

§ Visibility from observer

Set your observer location to see the next 7 days of passes ≥ 10°. The values pass through the URL so the page stays shareable.

No JS? Fill the form by hand. The geolocation button needs JavaScript.